sat.trackr.live / text

‹ back to catalog

STARLINK-6358

NORAD 57377 · 2023-099BB

PAYLOAD ACTIVE UNKNOWN

§ Identity

Operator
Country
US
Launch date
2023-07-16
Launch site
AFETR
Launch vehicle
Mass (kg)
RCS (m²)

Purposes: comms

External: N2YO · Heavens-Above · Gunter

§ Orbital elements

Epoch: 2026-05-25T02:16:33.439872Z

Period
94.73 min
Inclination
43.0017°
Eccentricity
0.0001553
Mean motion
15.20045736 rev/d
Perigee alt
504.6 km
Apogee alt
506.8 km
Semi-major
6,883.8 km
B*
3.9214e-5
RAAN
172.8166°
Arg perigee
274.4511°
Mean anomaly
85.6160°
Rev number
15,785

§ Raw data

STARLINK-63581 57377U 23099BB  26145.09483148  .00000620  00000+0  39214-4 0  99972 57377  43.0017 172.8166 0001553 274.4511  85.6160 15.20045736157850

JSON: /api/v1/satellites/57377 · /tle

For live sub-satellite position, see the globe view (requires WebGL).

§ Visibility from observer

Set your observer location to see the next 7 days of passes ≥ 10°. The values pass through the URL so the page stays shareable.

No JS? Fill the form by hand. The geolocation button needs JavaScript.